Wind_Speed
16 17 16 14 13 13 13 13 15 16 18 19 21 22 23 23 23 23 23 22 22 22 23 23 23 23 23 23 23 22 21 21 21 23 21 18 19 19 15 14 14 13 12 11 9 8 5 2 1 0 2 1 3 5 7 3 4 5 7 2 4 6 6 7 12 11 11 13 12 11 10 11 13 12 12 11 11 11 13 12 12 14 13 13 14 15 15 15
16 17 17 15 14 13 13 13 14 15 16 18 19 20 22 22 23 22 22 22 22 22 22 23 22 20 20 19 20 20 20 19 21 22 18 17 19 17 15 15 14 13 13 10 9 8 6 2 3 1 3 4 4 4 5 4 2 3 2 5 8 8 9 7 10 11 12 13 11 11 10 11 13 12 12 11 12 12 16 16 16 15 12 11 13 16 16 15
16 17 17 16 15 13 13 14 14 14 15 16 17 19 20 21 21 21 21 21 21 22 22 21 18 17 16 16 17 17 17 18 20 17 14 17 19 17 16 16 15 14 13 12 11 9 10 4 5 3 4 5 4 4 4 4 4 1 1 5 6 6 7 8 11 11 11 12 11 11 9 10 11 9 6 8 12 11 14 15 13 12 10 12 15 16 17 18
16 16 17 17 16 14 14 14 14 14 14 15 15 17 18 19 19 20 20 20 21 21 20 17 15 14 13 14 14 15 15 15 17 14 14 19 19 17 17 16 16 15 14 14 13 10 8 5 5 6 6 7 5 5 7 2 4 2 6 5 6 5 8 9 10 11 12 12 12 11 10 10 9 8 6 8 12 11 11 12 9 8 10 13 16 17 17 19
16 16 17 17 16 15 14 14 15 14 14 14 14 15 16 17 17 19 19 19 20 19 17 14 12 11 10 11 10 12 10 7 13 16 14 16 18 17 17 17 17 17 16 16 15 11 8 6 6 8 9 11 6 6 10 2 4 4 7 6 7 8 11 12 11 11 11 11 11 10 11 11 9 10 8 9 14 11 11 13 8 7 10 11 15 18 17 18
16 16 17 17 17 16 15 15 15 15 14 14 14 14 15 16 16 17 18 18 18 16 15 12 11 11 10 9 8 9 9 8 11 14 12 14 17 18 17 19 19 19 19 17 16 12 8 9 9 10 10 13 8 6 10 3 3 5 7 6 7 9 12 12 10 10 10 11 11 11 10 10 10 10 6 6 14 12 12 15 10 8 10 10 12 14 15 16
16 17 17 17 17 16 16 15 15 15 14 14 14 14 14 14 15 16 17 17 16 14 13 11 11 11 10 10 7 9 12 16 12 6 10 16 16 18 19 20 22 21 20 17 16 13 8 10 9 11 11 12 9 7 9 3 1 5 7 8 9 10 11 10 10 9 10 10 10 11 11 12 11 12 11 10 14 14 14 14 10 9 9 9 10 11 12 13
17 17 17 18 18 17 16 16 15 15 15 14 13 14 14 14 14 15 16 16 14 13 12 12 12 11 11 10 8 10 10 16 15 6 9 16 16 19 20 22 24 23 21 18 17 14 9 11 11 13 11 8 7 7 5 4 5 10 8 9 10 10 11 10 10 10 10 10 11 13 12 12 12 13 14 12 14 14 13 12 10 9 9 9 10 11 11 12
17 17 17 18 18 17 17 16 16 15 15 14 14 14 14 14 13 14 15 14 13 12 12 12 12 11 11 10 10 8 4 12 18 11 9 16 17 19 20 22 24 23 21 19 19 14 10 13 14 14 8 6 6 4 3 8 8 11 8 10 11 10 11 10 10 10 11 12 13 13 13 13 12 12 13 12 14 13 12 13 10 8 9 11 11 11 10 10
17 17 17 17 18 18 17 16 16 15 15 14 14 14 14 14 13 14 14 12 12 11 12 13 12 12 11 11 11 7 7 14 16 12 10 15 18 18 20 22 24 24 22 20 21 17 13 14 11 10 8 9 8 5 6 11 7 10 10 10 12 11 11 10 11 11 12 13 12 13 14 13 12 12 12 12 12 12 13 13 12 10 9 11 11 9 9 9
17 17 17 17 18 18 17 17 16 15 14 13 14 14 14 14 13 13 12 11 11 11 12 12 13 13 11 12 11 10 11 13 12 12 12 14 17 17 19 24 25 24 23 21 20 16 16 14 8 8 8 7 10 6 5 10 9 11 11 12 12 11 12 10 10 11 13 13 11 13 14 12 11 11 12 12 12 13 14 13 13 12 11 12 11 8 8 9
17 17 16 17 18 18 18 17 16 15 14 13 13 14 14 14 13 13 11 11 10 10 12 13 14 13 10 11 13 15 14 11 12 14 12 13 15 15 19 25 26 25 23 20 17 15 15 12 9 13 10 5 10 8 6 11 10 11 13 13 12 11 12 9 10 11 12 12 11 13 13 11 10 9 11 13 13 14 14 14 14 13 12 12 10 7 7 8
17 17 16 17 18 19 18 17 17 16 14 13 13 13 14 14 14 12 10 10 9 9 11 13 14 11 8 8 11 19 18 13 14 15 14 15 16 16 21 26 25 25 23 16 13 13 14 11 9 16 13 7 10 6 4 10 10 12 13 12 13 13 11 9 9 10 11 12 11 10 10 11 10 10 11 12 14 14 13 15 15 14 14 12 8 7 7 7
16 16 17 17 18 19 18 17 17 16 15 13 12 13 14 14 14 12 10 9 9 8 10 12 12 8 7 8 12 18 20 16 16 17 16 17 18 19 24 27 23 24 21 14 14 12 14 12 9 14 15 14 13 6 5 10 13 12 11 11 13 12 11 11 9 10 10 10 9 7 6 11 11 11 13 11 12 14 14 14 14 15 14 10 6 7 7 7
16 16 17 17 18 19 18 18 17 16 16 13 12 12 13 14 14 13 10 8 8 8 9 11 10 7 7 10 11 16 18 17 17 18 19 19 19 20 26 26 20 20 17 15 15 12 16 15 10 13 15 16 12 10 11 12 11 13 11 12 12 9 10 12 11 10 10 8 7 6 6 12 12 12 14 11 11 14 14 13 14 15 12 9 7 7 7 7
16 17 17 18 19 19 19 18 17 16 16 14 12 11 12 13 14 13 10 8 8 7 8 9 9 6 7 8 12 14 13 16 17 18 21 20 19 19 23 25 19 19 19 16 13 13 19 18 13 14 13 12 10 15 19 13 10 14 13 12 13 11 11 13 13 11 10 9 8 5 6 13 13 13 14 13 12 14 13 12 14 16 12 10 8 7 7 7
18 18 18 19 20 20 20 19 17 16 16 14 12 10 11 12 13 13 10 8 8 6 7 7 8 6 8 11 13 12 12 16 18 19 21 21 18 18 21 22 20 20 19 15 11 13 20 20 15 15 14 12 11 17 21 17 14 16 14 13 13 13 12 12 14 12 11 10 8 6 7 11 14 14 15 15 13 12 13 13 13 15 14 10 8 7 8 9
20 19 19 20 21 21 21 19 18 16 16 14 12 10 9 10 11 12 11 9 7 6 7 6 6 4 5 10 10 10 11 15 17 19 21 21 19 18 20 21 20 20 18 16 15 15 19 20 17 17 17 16 16 18 18 17 17 17 17 16 14 13 13 13 12 13 13 11 10 9 7 10 14 15 15 16 15 12 13 14 11 12 12 10 10 9 9 9
22 21 21 21 22 22 21 20 19 17 15 14 12 9 7 8 10 12 14 11 9 9 7 6 10 6 2 6 5 8 12 14 16 19 19 19 20 19 20 21 19 20 20 17 18 19 20 21 20 20 20 19 20 20 19 17 15 18 19 16 14 15 14 13 12 13 14 12 13 12 9 12 15 15 16 15 16 14 12 14 14 13 9 7 12 11 9 8
22 23 22 22 22 22 21 20 19 17 16 13 11 9 4 8 12 13 16 14 11 11 10 6 12 6 2 5 4 9 15 17 18 19 19 19 21 20 21 21 20 21 22 20 19 21 21 22 23 22 19 19 21 21 21 17 14 17 17 14 15 15 14 15 13 13 14 11 12 12 11 14 15 15 16 15 16 15 14 15 16 15 11 7 10 10 8 8
22 22 22 22 22 21 20 19 19 17 16 13 11 8 3 5 11 12 16 17 13 11 13 12 12 10 5 6 7 14 18 17 18 18 19 21 21 22 24 24 23 24 24 21 20 21 21 24 24 21 19 18 21 22 21 20 18 16 12 12 17 16 15 17 16 13 14 12 10 10 11 14 14 15 16 16 15 15 16 17 17 16 14 12 11 10 9 9
22 22 21 21 21 20 19 18 18 17 15 13 11 8 5 4 7 12 17 19 15 13 14 15 16 17 13 7 10 19 19 16 19 20 21 23 21 24 26 26 25 24 24 23 22 23 23 26 23 20 20 18 19 21 21 21 19 17 14 14 18 16 15 17 16 14 14 12 10 10 11 13 14 14 16 16 15 15 16 16 16 17 17 16 16 14 11 10
23 22 21 20 20 19 18 17 17 17 14 13 11 9 9 9 9 11 14 18 18 16 15 17 19 19 16 12 13 19 19 17 21 22 23 25 23 24 26 26 25 23 25 26 26 25 24 25 23 20 20 19 19 20 21 21 17 16 17 14 15 17 16 16 16 15 14 12 10 10 10 12 15 15 15 16 15 14 15 16 15 17 18 17 17 17 14 13
22 22 20 20 19 18 17 16 16 16 13 11 11 10 10 10 10 10 12 16 21 19 17 18 20 21 20 19 16 17 19 19 21 23 25 26 24 24 25 25 25 24 25 27 27 26 23 22 22 21 20 20 20 20 20 21 16 14 18 16 13 16 16 18 20 17 15 13 11 11 11 12 15 15 15 16 15 15 16 16 16 17 18 17 17 18 18 17
22 22 20 19 19 16 16 17 16 13 9 7 7 6 8 11 10 10 12 15 18 19 17 18 22 23 21 21 19 17 19 21 22 24 26 27 25 24 23 24 25 24 25 26 26 26 24 20 20 21 21 21 21 21 22 20 17 15 20 23 17 13 14 20 25 20 15 16 15 14 12 10 13 15 15 15 15 16 17 18 18 18 18 18 18 19 20 20
22 21 19 19 19 16 15 17 15 10 5 3 2 3 7 11 9 8 11 14 18 17 17 18 22 25 22 22 21 17 19 23 23 23 26 27 26 24 22 22 24 24 24 25 25 26 25 22 21 21 22 23 21 20 20 19 19 17 19 23 21 15 19 20 24 22 15 15 17 18 16 11 14 19 19 18 18 17 18 19 19 20 20 20 19 20 21 21
22 21 19 18 19 17 14 16 16 10 8 7 6 8 10 8 6 5 8 12 15 13 18 19 19 22 22 23 23 20 21 23 23 25 26 27 27 25 22 22 23 23 22 23 24 25 25 23 22 23 24 24 23 20 16 18 22 19 17 20 17 17 20 17 18 23 16 13 16 21 22 15 16 23 24 23 23 20 20 21 20 20 21 21 21 22 23 23
22 21 19 17 18 19 15 15 16 13 11 12 11 9 7 6 5 3 6 8 5 7 18 22 19 19 18 21 24 22 19 20 24 27 27 27 29 27 25 22 22 22 22 24 24 22 23 23 21 23 26 23 22 22 18 19 23 19 12 15 17 17 20 16 12 19 16 14 16 18 21 16 13 20 23 23 26 24 23 24 24 22 21 22 23 23 24 24
22 21 20 17 18 20 16 14 16 15 14 14 12 9 7 6 5 5 8 9 4 8 16 20 20 19 17 20 24 22 20 21 23 26 27 28 30 28 25 22 22 23 23 24 24 20 21 24 21 23 28 22 18 22 21 20 24 19 11 13 18 19 17 14 12 14 13 13 14 14 19 16 10 14 21 23 27 27 26 26 26 25 23 25 25 24 25 25
22 22 21 18 17 20 17 14 15 16 15 13 11 11 9 7 6 9 9 8 9 10 14 17 20 19 20 22 23 24 25 23 21 24 28 28 29 28 23 20 21 23 24 23 23 21 21 22 19 20 25 21 17 20 21 20 22 19 13 17 18 14 12 12 14 16 15 10 15 18 18 18 11 12 22 25 27 27 25 26 26 26 24 26 28 26 26 27
21 22 22 19 18 19 17 15 16 17 15 12 12 11 9 8 10 12 9 8 12 11 14 15 18 20 22 24 22 24 27 24 22 26 29 28 30 29 23 20 22 22 23 23 22 23 24 23 20 19 21 20 19 21 22 23 24 18 13 17 15 7 8 12 17 16 11 8 15 19 18 19 14 13 18 23 27 23 22 23 25 27 26 27 30 28 27 28
21 22 23 21 19 19 16 15 16 15 13 13 13 12 10 10 14 16 14 10 9 12 15 13 17 22 24 24 22 24 28 25 24 27 29 29 32 32 27 24 24 23 23 23 22 24 26 25 23 20 20 22 22 22 23 24 24 20 16 17 15 9 8 10 12 12 10 11 16 18 18 18 19 19 19 18 20 23 21 20 23 28 29 27 30 31 28 29
22 23 23 22 21 18 15 16 17 15 14 14 14 13 12 12 15 18 21 17 8 7 14 16 18 22 24 26 23 23 28 26 24 27 28 29 30 32 30 25 23 23 21 22 23 23 20 17 20 20 21 26 26 24 24 22 19 19 17 16 14 10 7 7 7 7 10 14 18 19 17 16 17 18 18 16 17 22 19 18 20 24 24 23 27 31 29 29
22 23 23 22 21 17 16 17 17 17 16 16 16 15 15 16 17 18 23 23 14 6 10 16 19 22 24 26 25 25 27 25 25 27 27 29 30 31 32 28 25 24 22 21 23 23 18 13 19 22 21 26 27 24 22 21 18 18 18 18 18 15 9 7 7 8 10 13 17 19 16 14 11 7 10 10 12 17 14 14 15 14 16 19 23 28 29 29
22 24 24 22 20 18 17 17 18 18 18 19 18 17 19 19 20 22 21 23 21 12 9 13 17 21 24 25 24 26 28 25 26 29 28 30 32 30 32 31 29 28 26 22 21 23 21 17 21 24 22 24 25 22 19 22 22 20 20 23 23 19 16 13 12 13 13 11 11 13 12 12 9 4 6 7 6 12 11 11 11 8 11 15 20 28 29 27
22 23 24 23 20 19 19 18 18 20 21 21 20 20 24 22 21 23 18 19 22 15 9 12 18 21 23 25 25 27 30 26 25 29 28 29 31 30 30 30 31 33 29 23 20 22 21 18 22 26 23 24 25 22 19 19 20 21 22 24 23 18 19 18 16 16 15 11 8 12 14 13 13 13 16 16 11 11 12 11 9 9 11 12 16 25 28 28
22 23 24 22 19 18 20 19 19 21 23 24 24 23 24 25 26 27 21 18 19 16 14 16 21 22 22 24 25 27 30 27 25 28 27 28 30 31 30 28 31 34 32 25 22 23 20 17 22 30 27 25 26 25 22 19 19 21 22 23 21 17 18 18 13 12 12 9 9 14 16 16 14 11 13 18 14 11 12 10 10 12 13 12 14 18 23 27
20 22 23 19 17 19 20 20 20 22 24 25 28 27 25 26 28 30 27 21 19 19 19 19 20 24 23 23 25 27 29 27 26 26 26 27 29 31 32 29 29 33 33 29 25 23 20 17 21 32 29 24 26 26 25 23 22 22 20 18 17 16 19 19 13 7 6 7 7 11 14 16 15 8 13 20 17 14 13 10 9 12 13 13 14 16 19 24
19 20 18 15 17 20 19 19 20 22 25 27 29 30 29 29 29 31 29 23 19 19 20 19 19 23 25 24 24 27 30 29 26 25 25 26 26 28 32 30 28 32 34 33 27 20 18 18 17 29 28 23 27 28 27 25 23 24 22 17 15 16 17 18 15 9 9 7 5 9 10 8 10 11 18 20 16 13 12 11 12 12 10 11 14 14 17 23
17 16 9 8 15 18 17 19 21 23 27 30 31 29 27 27 29 31 30 24 21 20 20 20 18 19 21 24 25 26 29 30 28 26 24 24 24 25 30 30 28 31 34 33 28 22 20 20 16 24 27 24 26 28 27 25 24 24 23 19 16 17 15 13 14 15 14 9 4 7 5 6 6 12 19 17 15 13 11 10 11 11 8 9 11 11 14 19
16 13 6 9 14 14 15 20 23 26 28 30 31 29 26 25 26 28 28 24 21 21 23 22 18 16 17 20 24 26 28 30 30 27 24 24 24 23 28 31 29 30 33 32 29 26 23 20 17 21 24 25 26 26 25 26 25 24 23 21 18 17 15 11 10 16 16 12 8 8 3 11 15 15 18 16 14 13 11 8 7 9 8 8 9 10 11 15
14 8 6 12 16 11 14 20 22 25 28 29 31 29 25 24 24 25 25 24 21 20 23 24 21 19 18 18 21 25 28 29 29 28 24 24 26 23 24 29 29 28 30 30 30 29 24 19 20 22 22 23 25 24 24 25 25 23 23 23 20 17 16 14 10 12 13 14 14 13 5 10 13 12 16 15 12 11 10 7 5 7 8 7 7 9 11 14
13 10 8 11 17 13 15 19 21 24 27 28 29 28 26 25 24 25 25 24 23 22 23 24 22 20 22 22 21 23 27 28 29 29 27 24 26 25 22 26 30 30 30 30 29 28 25 20 19 20 21 22 23 22 22 23 23 25 24 25 24 21 19 19 16 12 13 16 16 12 4 10 10 9 13 13 10 9 8 5 4 6 8 6 5 6 11 15
15 17 15 13 17 17 19 21 21 24 26 26 26 27 27 26 26 26 25 24 24 23 23 25 23 22 23 24 23 22 23 26 28 30 30 26 25 26 25 25 29 32 32 30 29 28 26 22 19 17 15 17 18 17 20 24 24 25 26 27 29 27 22 22 20 15 15 15 14 11 5 9 9 10 12 9 7 6 4 3 2 3 6 6 6 6 9 15
13 15 16 16 17 19 22 23 21 22 23 25 27 27 27 28 27 27 26 24 23 23 23 24 24 22 22 24 24 22 21 21 23 26 29 28 25 26 28 26 27 32 31 26 26 27 27 26 23 18 12 11 14 15 19 25 27 26 27 27 29 29 26 23 21 18 16 13 12 12 5 10 12 12 10 6 4 4 4 4 3 3 5 7 8 9 9 12
11 11 10 14 19 21 22 24 23 23 23 23 25 26 27 28 27 25 23 23 23 24 24 23 22 23 23 24 25 23 19 19 19 19 24 29 27 25 28 29 28 30 31 26 24 25 27 28 27 24 20 18 19 19 19 23 25 26 25 26 25 24 24 25 23 21 19 16 17 19 14 13 13 12 8 5 6 6 5 6 5 4 7 10 11 12 12 12
14 12 3 9 17 21 21 23 24 26 24 22 23 24 25 28 27 24 23 23 23 25 26 24 24 24 24 25 27 25 21 20 21 20 20 27 28 24 27 30 29 31 33 28 25 26 26 26 27 28 28 27 27 22 18 18 22 22 22 24 26 25 23 25 25 23 21 18 18 21 25 23 19 17 13 10 9 6 4 7 10 8 9 12 14 16 18 16
17 19 9 7 12 16 18 19 21 25 26 25 23 21 22 25 26 25 24 22 23 26 27 26 25 24 23 23 25 24 22 21 23 20 16 21 26 24 25 29 28 29 32 29 26 28 27 25 27 28 27 27 29 29 24 21 22 24 24 25 27 28 28 28 28 26 24 21 18 17 20 21 20 19 16 14 13 11 8 8 9 9 10 12 15 18 20 20
18 23 20 14 17 18 17 16 17 21 24 26 26 23 21 22 24 25 25 23 22 25 27 27 24 23 23 22 22 23 21 20 22 21 15 13 17 18 20 29 30 25 26 28 26 27 29 29 27 26 25 24 27 31 31 28 24 25 27 26 27 28 30 30 30 29 27 26 25 22 20 20 18 17 16 14 14 15 14 13 12 12 14 16 16 17 19 22
16 21 23 22 24 23 17 13 13 17 19 22 25 25 23 21 19 21 23 24 22 22 25 28 25 23 24 23 24 25 22 19 21 21 19 15 14 14 13 23 30 25 23 26 26 24 28 28 22 22 26 28 28 29 29 29 27 25 27 30 30 30 30 30 30 29 29 29 26 22 19 18 18 20 20 18 18 19 20 21 22 21 21 20 17 16 18 22
14 18 21 23 25 26 20 11 10 14 17 18 20 20 21 21 17 15 17 22 23 20 20 23 24 23 24 24 24 25 22 18 17 15 17 17 12 8 8 13 21 25 23 25 26 26 27 26 21 21 25 26 26 25 27 29 30 30 31 33 33 29 27 27 28 28 29 28 25 22 20 17 15 16 15 14 17 18 18 18 17 16 17 17 15 15 17 20
11 14 17 20 24 26 20 13 10 12 15 17 18 18 19 21 19 17 16 16 18 20 18 16 16 18 18 18 18 20 17 18 19 16 17 20 13 8 10 11 15 23 24 24 26 24 23 24 24 24 24 24 25 27 29 27 25 26 31 32 30 27 25 24 25 27 26 24 21 21 22 20 15 13 13 12 11 11 11 12 13 16 19 19 18 20 21 21
Wind_Direction
321 326 325 318 311 310 310 299 285 276 273 272 272 273 274 277 280 283 285 288 289 288 286 284 281 279 276 274 272 269 264 259 254 248 242 236 238 239 233 230 227 222 222 222 222 215 200 179 237 222 103 107 294 242 210 242 268 266 283 298 69 60 67 109 123 124 131 129 129 126 119 119 118 115 115 115 112 111 116 117 117 132 150 155 152 139 137 140
318 322 325 319 311 310 311 306 291 280 276 274 275 276 276 279 281 284 287 290 292 291 290 288 285 283 278 275 271 267 262 257 251 245 237 232 235 233 226 223 219 214 211 207 205 190 152 97 331 272 160 208 227 215 208 228 239 274 298 75 62 61 67 90 124 131 133 129 131 126 122 122 120 124 131 127 119 119 118 124 142 153 161 155 146 141 140 138
315 318 323 319 312 309 310 311 300 285 278 277 277 278 279 280 283 286 289 292 294 293 293 292 289 285 280 273 268 264 259 254 251 247 234 227 229 225 220 216 211 207 202 196 189 167 138 137 290 243 205 231 204 183 173 187 213 296 17 111 81 72 82 94 113 119 124 127 127 124 124 125 126 133 138 125 122 130 131 141 165 173 167 150 146 149 144 141
313 315 320 320 313 308 309 312 308 294 282 279 279 281 282 282 285 288 291 294 295 296 296 293 290 286 280 271 265 260 255 257 258 248 228 222 220 216 214 210 205 202 196 193 181 161 150 168 255 219 211 229 193 191 178 177 286 51 60 85 96 95 108 111 111 113 121 120 118 122 123 118 122 124 125 133 132 138 144 152 173 172 166 155 148 153 151 147
310 313 316 320 314 307 307 310 312 304 289 283 282 283 285 286 288 291 293 296 297 299 296 292 290 284 279 272 264 256 248 258 260 245 225 218 215 209 209 204 200 198 192 194 180 164 183 192 222 218 222 220 187 199 200 238 328 117 83 83 106 104 109 113 114 115 118 117 118 121 115 110 119 123 130 157 146 140 153 162 178 170 166 162 153 157 158 153
308 311 313 318 316 308 305 309 313 309 298 289 286 287 287 289 292 294 296 298 299 299 294 291 287 282 281 274 263 250 214 192 241 242 216 211 210 202 202 199 196 196 190 193 180 164 188 192 208 220 218 217 217 233 197 159 9 120 106 106 111 111 112 110 113 115 116 118 119 119 114 111 121 123 111 131 129 129 153 166 180 173 167 170 161 158 159 159
305 308 311 316 316 309 303 306 311 310 303 293 290 290 290 294 297 298 299 300 301 297 293 290 285 284 281 275 266 246 211 204 231 247 200 202 204 197 198 197 193 195 190 189 177 160 182 197 210 220 218 224 220 202 173 160 352 115 119 127 116 117 119 114 116 115 113 113 115 118 117 113 114 115 103 98 114 132 158 170 178 169 169 175 166 159 159 161
302 305 309 313 316 311 303 303 308 311 305 296 293 292 294 299 301 302 302 301 300 295 294 290 285 284 278 274 260 244 223 220 233 242 197 196 197 195 196 194 193 193 190 188 169 153 181 201 210 213 226 246 205 187 169 165 132 114 119 126 122 123 122 119 113 111 114 115 119 117 111 114 118 119 115 112 124 144 162 169 176 170 171 173 168 165 160 159
300 303 307 311 314 313 304 300 305 309 306 298 294 292 296 301 304 306 304 302 299 295 294 290 288 284 280 271 251 236 229 236 232 225 206 197 193 194 195 193 193 190 188 187 163 154 193 204 211 212 236 272 198 188 189 183 143 123 135 130 131 132 126 123 114 113 115 115 119 116 108 112 114 114 114 119 132 146 153 155 163 168 171 171 173 171 163 161
299 301 305 309 313 313 307 300 301 306 305 299 294 293 297 301 306 306 305 302 297 295 293 291 291 286 280 263 239 206 213 239 231 216 208 200 193 193 193 189 191 188 186 184 159 154 191 197 205 214 260 271 193 159 190 196 160 131 148 143 140 137 131 125 117 117 117 119 122 118 116 114 109 109 117 129 138 141 144 149 154 158 160 165 175 173 163 166
298 299 302 307 311 312 309 302 299 303 303 299 295 293 296 301 305 305 305 301 295 296 294 292 295 289 279 258 223 190 215 238 237 219 206 201 195 192 191 186 187 185 182 179 159 161 194 204 224 219 243 250 187 178 194 186 163 146 152 145 144 145 139 130 124 126 122 123 123 120 118 113 112 116 129 141 142 144 151 152 153 155 156 168 182 174 170 179
298 298 300 304 308 311 310 303 299 300 300 297 294 293 296 300 303 304 304 299 294 295 295 298 302 293 274 254 210 195 206 216 233 222 198 198 194 188 190 184 182 183 177 172 167 177 202 220 243 215 207 208 182 174 151 164 162 153 156 151 154 157 150 143 140 137 128 126 129 128 120 112 119 123 131 142 145 151 156 154 158 159 163 183 196 180 186 197
298 297 298 301 306 309 309 305 299 298 298 293 292 293 294 300 302 302 300 296 294 292 297 302 304 299 271 240 196 210 214 201 219 215 190 190 188 185 186 181 183 180 166 168 185 192 210 225 231 213 216 228 189 167 160 172 156 152 164 165 165 167 164 160 150 147 139 134 142 144 121 115 131 135 134 144 150 155 156 155 162 163 172 197 202 188 200 199
298 295 296 299 304 307 308 307 300 297 297 289 289 292 293 300 300 298 296 293 292 287 295 303 306 301 247 189 175 218 225 210 212 202 187 187 186 186 182 179 184 176 159 173 200 207 220 219 219 214 221 227 200 190 214 173 156 165 176 172 173 179 174 168 166 163 153 143 161 180 141 128 140 148 148 146 143 152 161 161 166 168 177 202 199 187 192 188
296 293 293 296 301 304 306 307 301 296 296 289 286 290 292 299 300 298 293 287 286 282 290 301 308 293 223 187 198 230 229 217 209 192 186 188 187 187 183 178 180 181 177 185 195 217 226 214 219 216 216 229 219 203 190 163 168 182 178 181 184 192 184 173 178 173 158 153 178 203 158 142 147 156 159 152 137 150 163 164 171 174 180 200 199 185 179 184
293 291 290 293 298 301 304 306 303 296 295 289 283 288 292 298 303 297 289 282 277 274 282 293 302 279 207 202 230 239 232 213 199 189 188 187 187 189 185 180 182 192 190 185 193 221 221 210 218 218 215 231 222 200 185 167 188 184 179 195 182 185 199 185 180 182 173 163 175 197 159 152 155 160 164 161 152 156 162 167 176 177 182 197 189 181 186 191
289 288 288 290 294 298 301 302 302 297 294 290 280 286 293 299 305 299 290 277 265 265 271 281 300 275 216 225 234 233 225 200 189 190 188 183 185 189 189 185 186 189 184 191 208 214 209 206 214 216 216 217 207 205 190 174 186 179 186 211 185 181 210 200 182 184 190 180 173 174 160 159 159 162 168 170 169 162 161 173 182 180 186 196 181 179 191 196
288 287 286 288 291 295 297 299 301 295 293 290 279 283 295 304 306 301 296 273 251 250 253 274 282 248 251 262 246 230 212 192 189 190 187 184 182 186 191 188 184 185 187 206 217 205 201 202 209 216 215 209 203 209 202 186 186 182 193 212 195 193 215 208 190 186 195 195 181 177 178 169 161 166 173 175 178 170 166 179 188 188 192 190 187 189 183 188
286 286 286 288 289 293 294 295 298 293 292 289 279 282 298 325 319 305 304 281 243 225 221 292 278 225 352 320 257 211 195 188 190 189 187 184 179 184 190 186 185 190 195 208 210 199 197 199 205 218 217 207 204 208 208 197 189 192 203 207 195 203 208 199 206 199 190 195 191 189 193 177 168 174 177 179 183 178 174 179 182 194 200 177 183 190 185 191
285 286 286 288 288 291 291 291 294 292 290 285 278 280 299 354 340 313 301 281 251 222 199 263 276 229 64 323 251 190 186 191 188 185 189 180 174 185 189 185 188 195 198 203 199 188 193 202 205 214 214 204 204 210 213 207 195 197 206 202 193 204 199 189 211 205 186 202 198 179 178 178 175 178 179 180 184 184 183 178 180 194 202 189 190 188 182 200
284 286 287 288 287 288 287 287 291 289 288 285 275 276 279 2 341 310 291 279 263 238 209 216 243 243 251 258 223 185 181 192 188 185 192 177 171 187 190 186 190 196 198 199 195 188 198 209 207 210 211 204 205 211 217 219 214 210 212 204 197 206 204 194 204 198 189 208 204 182 181 180 180 182 184 185 184 188 188 183 184 190 194 196 204 200 186 197
282 285 287 289 288 286 284 282 285 285 286 284 272 273 264 263 306 299 287 281 263 241 235 229 229 240 241 211 193 188 182 190 190 189 192 180 178 189 189 189 192 196 198 197 195 194 204 213 210 211 212 207 207 212 221 226 231 238 234 211 203 209 203 192 193 189 193 208 210 204 194 184 184 186 187 189 190 193 191 189 188 189 194 194 198 206 199 196
280 283 284 288 288 284 282 278 281 281 280 286 277 269 268 265 285 292 287 286 270 246 247 245 232 230 223 200 197 197 192 197 193 190 192 186 186 189 187 191 195 195 197 199 198 197 205 213 211 210 214 214 212 215 224 228 236 252 245 215 204 216 203 179 175 180 196 212 214 208 209 203 192 190 195 195 196 197 194 196 195 192 197 195 195 205 204 199
280 281 282 285 285 282 280 275 275 276 281 291 278 269 279 285 293 292 287 290 278 257 241 236 229 226 218 206 207 205 199 202 196 192 194 188 187 190 190 192 197 199 200 201 203 203 206 213 212 209 213 219 218 212 217 228 227 232 242 228 209 219 207 180 175 184 202 216 217 209 218 216 189 184 198 200 201 204 201 199 199 200 201 199 197 201 203 204
278 279 280 282 282 279 277 273 269 273 287 292 284 300 308 292 289 297 299 296 284 264 242 229 222 221 215 205 211 210 201 203 198 194 198 192 186 191 194 196 200 203 203 203 207 212 211 209 214 214 211 215 221 214 209 220 224 216 228 235 234 217 190 178 174 179 199 209 212 209 212 216 197 198 203 201 209 212 209 206 203 204 204 203 202 202 204 206
276 277 278 279 279 274 269 269 266 263 267 263 275 293 272 268 273 296 305 291 278 261 236 225 219 215 209 201 204 203 201 207 200 194 200 196 188 191 194 198 205 207 205 204 208 218 216 206 208 217 216 213 221 225 211 211 223 220 212 228 247 224 192 190 178 177 202 212 207 208 211 211 205 216 216 205 211 216 214 212 208 209 209 206 204 206 207 207
275 274 274 275 276 271 262 263 263 249 228 223 229 231 233 252 271 299 306 281 271 247 211 209 213 214 210 200 196 194 199 203 195 194 203 197 188 193 199 196 206 211 205 204 209 218 220 208 202 213 221 216 215 223 214 205 220 230 208 206 233 234 223 226 195 184 203 224 220 210 211 217 207 210 212 206 207 212 216 215 210 212 215 213 209 210 211 209
273 271 269 270 272 270 261 255 256 248 231 234 248 249 236 252 260 269 287 271 259 193 191 198 207 213 209 197 194 197 197 192 191 195 200 196 185 194 210 203 205 212 206 207 211 212 218 214 201 206 220 219 210 214 213 208 219 231 225 204 213 235 252 260 215 192 197 219 236 217 207 227 223 201 205 212 214 215 220 216 211 213 216 219 215 212 215 213
271 269 266 264 266 269 264 254 251 247 238 237 246 247 238 246 246 246 262 261 232 182 187 198 207 207 196 189 195 204 202 194 194 192 194 197 185 189 213 213 206 212 210 214 218 212 214 218 210 206 216 219 209 211 212 213 219 222 233 238 221 212 231 252 238 232 236 226 239 235 210 221 237 197 192 204 213 218 221 214 213 221 223 223 220 214 217 217
270 268 265 259 259 263 262 256 249 243 240 238 234 233 235 230 234 247 241 237 242 207 184 201 207 194 184 188 196 207 205 198 195 188 187 195 188 188 212 217 211 216 214 218 224 218 213 216 220 214 214 216 208 209 212 212 220 222 223 239 230 193 194 243 248 256 273 246 238 251 222 208 229 213 196 209 226 226 218 212 214 225 226 223 224 217 215 220
269 267 263 258 255 257 258 254 247 240 236 236 228 225 233 229 234 247 231 225 242 204 176 201 202 186 188 192 195 204 205 200 194 187 184 190 192 195 209 213 212 218 217 217 222 221 216 211 214 217 211 209 206 208 212 211 213 218 218 226 235 202 184 238 241 239 262 255 242 253 233 214 237 244 218 229 238 219 202 210 214 220 224 224 225 219 214 220
268 264 262 258 252 251 253 251 247 240 229 226 223 214 224 236 233 235 233 231 225 186 184 200 192 188 194 195 198 202 202 199 194 189 185 188 193 197 205 206 203 210 212 211 213 221 223 213 204 209 210 208 206 203 209 215 209 205 213 222 229 221 195 220 233 223 234 249 245 251 248 238 248 250 234 238 234 206 201 221 221 223 227 223 223 221 216 217
267 263 259 257 251 246 244 244 245 239 224 216 214 206 216 238 232 228 233 231 209 184 204 204 192 193 194 197 203 199 198 201 195 190 189 192 195 198 206 209 204 209 211 206 208 214 219 209 196 202 208 206 208 206 203 209 205 196 207 217 216 218 208 204 226 235 238 245 243 244 252 257 259 246 229 239 232 209 215 231 224 227 227 216 217 220 216 214
267 262 258 253 249 245 237 237 240 235 223 212 206 205 217 236 235 230 234 231 230 244 220 201 193 195 195 200 203 196 198 202 195 193 192 194 198 200 204 210 207 210 213 207 206 206 205 203 197 201 205 202 211 220 207 199 203 201 207 219 219 220 221 207 215 230 234 241 239 233 233 242 256 230 198 232 222 193 204 215 203 213 218 211 215 216 213 212
265 261 258 251 246 243 234 232 234 231 223 211 204 211 221 230 233 233 237 231 230 240 229 208 196 195 199 204 205 197 199 204 197 197 198 196 201 203 203 208 207 207 213 209 204 202 206 214 205 201 204 198 205 222 209 195 205 206 209 227 231 219 216 226 239 243 248 259 247 235 234 226 235 238 204 233 206 168 184 201 189 193 207 211 212 211 213 213
264 260 257 251 244 240 233 229 228 227 223 211 209 221 225 224 226 231 235 230 230 243 256 226 205 199 201 203 206 200 200 209 199 194 201 201 204 207 204 207 207 208 215 212 199 198 208 215 199 194 202 199 200 215 210 198 204 197 200 225 235 224 216 223 237 244 252 275 256 238 247 232 233 255 236 220 213 196 201 213 217 212 205 209 213 214 218 214
264 260 256 252 244 237 232 225 223 224 221 213 216 225 227 228 229 231 237 239 240 256 274 245 213 207 205 200 206 201 198 210 204 193 202 205 207 211 208 208 209 211 217 215 201 198 212 222 195 187 198 199 198 213 216 212 213 198 195 213 225 234 242 241 240 233 229 249 243 229 236 229 225 240 213 194 194 197 200 211 222 215 207 210 215 222 225 217
265 260 257 254 244 235 230 222 220 222 219 217 223 226 227 232 235 236 245 256 252 249 262 255 219 210 213 204 204 202 197 204 204 199 205 207 208 211 208 208 210 211 217 219 212 201 210 231 198 182 194 198 194 211 220 218 222 217 209 210 208 222 243 243 241 248 239 248 252 237 239 241 235 207 160 168 175 180 190 200 207 210 217 220 217 222 228 222
266 262 263 262 245 233 227 221 218 218 217 218 224 228 228 232 236 238 243 257 260 249 255 257 221 207 217 214 206 202 198 201 203 202 207 207 206 207 207 208 209 209 214 219 223 213 216 242 210 178 188 196 189 203 218 217 219 225 230 233 226 229 240 232 222 239 262 258 250 244 245 254 244 198 160 163 174 181 188 188 187 196 214 227 224 221 223 227
265 261 266 267 247 232 219 218 217 214 216 219 224 230 234 236 240 241 241 250 258 249 249 253 230 211 220 221 214 206 199 202 207 206 205 204 202 203 205 207 207 208 212 216 223 225 228 244 225 178 183 199 192 196 211 214 211 218 230 240 234 227 229 223 205 208 234 251 252 248 242 75 104 165 156 153 167 175 175 173 185 200 210 222 231 230 220 228
259 253 220 221 241 233 215 216 216 214 218 223 227 232 237 241 245 244 241 246 252 243 238 245 243 232 234 228 222 216 204 201 208 210 207 204 204 204 203 206 207 205 209 214 218 223 221 221 211 182 185 207 208 200 207 217 215 212 217 229 233 224 217 220 200 193 217 247 252 252 243 88 101 142 148 142 152 163 167 172 193 210 199 201 229 242 226 223
248 238 200 226 242 242 226 223 219 218 222 226 230 234 237 241 245 243 240 240 242 237 233 241 247 246 249 248 239 231 216 204 206 214 213 208 209 211 201 202 207 204 206 212 214 220 220 210 202 194 197 216 218 205 206 218 226 223 215 218 232 235 222 225 220 192 207 232 234 247 245 109 109 132 138 137 147 155 163 166 173 195 194 198 225 240 239 233
232 194 171 235 250 243 232 230 224 222 226 229 232 236 239 241 241 241 241 238 233 231 231 236 244 246 248 255 258 248 229 213 207 213 221 217 214 218 207 199 206 206 205 208 210 215 222 224 220 210 208 218 216 205 206 214 228 235 224 213 222 234 229 229 235 221 219 227 225 237 217 125 125 142 142 146 158 157 166 181 175 188 201 220 241 238 237 245
232 206 191 221 245 238 227 227 226 225 229 233 235 239 239 240 238 236 238 238 232 230 230 232 239 245 244 247 257 263 247 225 208 206 218 223 216 217 213 202 205 209 207 206 207 209 214 224 233 227 215 212 204 199 207 211 216 231 234 219 214 222 225 232 239 234 232 236 232 234 199 133 146 165 154 155 173 167 182 223 217 201 208 220 251 277 248 240
239 224 210 216 234 237 228 224 228 232 232 232 234 238 239 238 237 232 232 236 236 234 234 233 235 241 242 242 249 262 262 243 220 207 215 221 217 216 214 205 207 214 213 209 205 207 211 215 224 234 232 215 202 201 214 215 207 216 234 232 219 216 216 223 230 228 227 230 230 236 208 132 151 169 152 144 191 221 242 242 254 268 256 246 244 268 276 249
222 212 217 230 233 237 235 228 229 236 239 237 236 237 238 237 234 228 225 229 232 233 238 241 236 233 236 239 243 252 259 255 247 233 222 218 215 215 214 208 207 212 215 212 207 208 213 214 219 229 237 237 227 215 219 222 209 204 220 233 233 230 223 220 224 227 225 214 216 224 207 166 170 188 193 214 237 253 248 234 252 272 271 279 268 262 279 272
209 190 213 275 242 232 237 234 232 236 238 240 242 241 241 240 233 223 220 225 229 230 236 243 240 232 230 230 237 249 254 252 258 259 239 221 216 216 217 213 207 206 211 214 212 213 218 221 220 221 225 236 242 236 228 227 220 213 217 226 233 239 238 232 231 232 222 208 211 215 205 202 214 220 224 234 235 242 247 244 263 274 262 270 273 270 279 283
210 190 185 280 252 232 238 238 236 239 236 237 242 243 244 244 238 229 222 223 226 227 232 239 239 237 236 230 232 244 250 248 253 258 247 227 223 224 221 215 207 203 207 212 214 214 221 231 229 222 220 229 241 248 248 241 231 226 227 228 228 233 238 241 242 240 230 222 227 225 210 214 229 231 230 236 237 246 265 257 254 263 263 265 269 272 279 283
221 200 192 218 229 224 234 241 239 239 236 235 237 238 242 247 245 238 228 220 219 221 227 232 234 237 239 234 229 235 243 247 250 257 267 260 252 253 234 214 207 203 204 212 216 213 222 237 238 229 226 227 231 240 246 248 241 231 231 234 233 230 234 239 242 244 242 240 240 240 234 230 233 235 237 243 247 253 260 257 252 259 267 270 269 269 270 271
236 221 211 218 221 216 227 254 254 242 236 234 234 235 239 244 244 238 228 220 220 222 223 227 233 237 239 239 233 230 234 245 254 263 274 287 302 300 256 216 207 203 201 211 217 214 219 234 236 227 230 232 228 230 238 244 246 240 237 239 237 233 231 233 237 240 243 244 242 242 246 242 238 242 245 249 255 257 257 260 266 272 273 273 269 262 257 260
245 239 231 232 231 223 226 255 266 245 237 234 234 234 235 239 240 236 229 224 225 228 226 227 234 239 244 250 242 228 224 236 254 266 259 264 301 312 252 223 211 209 205 208 216 214 213 222 229 228 234 238 234 232 233 235 240 243 243 243 241 238 233 230 234 238 240 244 245 246 252 251 242 240 243 251 254 253 256 264 271 276 277 279 274 256 246 250
251 249 240 240 240 232 233 254 264 250 245 242 241 241 239 241 241 238 238 231 223 226 229 230 232 233 241 253 241 225 223 230 242 252 240 242 269 273 235 229 218 219 220 215 215 216 212 216 224 227 234 237 234 236 237 235 237 241 244 245 243 242 242 241 241 242 241 243 245 245 246 244 239 239 244 252 252 248 257 262 258 259 263 266 266 260 257 257
Height
3176 3175 3174 3173 3172 3171 3170 3170 3169 3168 3168 3168 3168 3168 3168 3168 3167 3167 3167 3167 3166 3166 3165 3164 3164 3163 3163 3162 3162 3162 3162 3162 3163 3163 3164 3167 3167 3168 3171 3172 3173 3174 3176 3177 3178 3179 3180 3180 3181 3182 3183 3184 3184 3184 3185 3185 3184 3184 3182 3179 3180 3179 3180 3181 3182 3184 3185 3186 3187 3187 3188 3188 3189 3190 3191 3192 3192 3192 3193 3194 3193 3192 3193 3192 3192 3193 3194 3195
3175 3174 3173 3172 3171 3170 3169 3168 3168 3167 3167 3167 3167 3167 3166 3166 3165 3165 3165 3165 3164 3163 3163 3162 3161 3161 3161 3160 3160 3160 3160 3160 3160 3160 3163 3165 3165 3167 3169 3170 3172 3174 3175 3176 3177 3179 3179 3182 3183 3183 3184 3185 3186 3185 3184 3185 3184 3183 3182 3181 3181 3181 3182 3183 3183 3184 3185 3186 3187 3188 3189 3189 3190 3191 3191 3192 3193 3193 3194 3194 3193 3192 3192 3193 3193 3194 3195 3196
3174 3173 3172 3171 3170 3169 3168 3167 3167 3166 3165 3165 3165 3165 3165 3164 3164 3163 3163 3162 3162 3161 3160 3159 3159 3159 3159 3158 3158 3158 3158 3158 3158 3159 3161 3163 3163 3166 3168 3169 3171 3172 3174 3175 3177 3178 3179 3183 3185 3185 3184 3185 3185 3185 3184 3184 3182 3182 3182 3181 3183 3183 3184 3184 3184 3184 3185 3186 3187 3188 3189 3190 3191 3191 3190 3192 3193 3194 3194 3193 3192 3192 3193 3193 3194 3195 3196 3196
3173 3172 3171 3170 3169 3168 3167 3166 3166 3165 3164 3164 3163 3163 3163 3163 3162 3162 3161 3160 3160 3159 3158 3157 3157 3157 3157 3156 3156 3156 3156 3157 3156 3157 3159 3160 3162 3164 3166 3168 3170 3171 3173 3175 3175 3178 3179 3182 3185 3185 3185 3185 3185 3184 3184 3182 3181 3183 3183 3182 3184 3184 3184 3185 3185 3186 3186 3187 3188 3189 3190 3190 3191 3192 3192 3192 3193 3195 3196 3194 3193 3193 3193 3194 3195 3196 3196 3197
3172 3171 3170 3169 3168 3167 3166 3165 3164 3164 3163 3162 3162 3161 3161 3161 3161 3160 3159 3158 3157 3157 3156 3156 3156 3155 3155 3155 3155 3155 3156 3157 3154 3154 3157 3158 3161 3163 3165 3167 3169 3170 3172 3174 3175 3176 3179 3182 3183 3185 3185 3183 3184 3184 3183 3182 3181 3183 3184 3184 3185 3185 3185 3186 3186 3187 3187 3188 3188 3189 3190 3191 3191 3191 3192 3192 3193 3195 3197 3195 3193 3193 3194 3195 3195 3196 3197 3197
3170 3170 3169 3168 3167 3166 3165 3164 3164 3163 3162 3161 3160 3160 3160 3159 3159 3158 3158 3157 3156 3155 3155 3155 3154 3154 3154 3154 3154 3154 3155 3154 3151 3152 3156 3157 3159 3161 3164 3165 3167 3169 3171 3173 3174 3176 3179 3181 3182 3184 3184 3182 3183 3183 3183 3183 3182 3182 3185 3185 3185 3186 3186 3186 3187 3187 3188 3188 3189 3190 3190 3191 3191 3191 3192 3192 3193 3196 3197 3195 3193 3194 3194 3195 3196 3196 3197 3198
3169 3169 3168 3167 3166 3165 3164 3163 3162 3161 3161 3160 3159 3159 3158 3158 3158 3157 3156 3155 3154 3154 3154 3154 3153 3153 3153 3153 3153 3153 3153 3152 3150 3152 3154 3156 3158 3160 3162 3164 3166 3168 3170 3172 3174 3176 3179 3181 3181 3183 3182 3181 3183 3182 3182 3183 3183 3183 3185 3185 3186 3186 3187 3188 3188 3188 3188 3189 3189 3190 3191 3191 3192 3192 3193 3193 3194 3196 3197 3195 3194 3194 3195 3196 3197 3197 3198 3199
3168 3167 3167 3166 3165 3164 3163 3162 3161 3160 3160 3159 3158 3158 3157 3156 3156 3156 3155 3154 3153 3153 3153 3152 3152 3152 3152 3152 3152 3152 3152 3151 3151 3152 3153 3155 3157 3159 3161 3163 3165 3167 3170 3172 3173 3176 3180 3182 3181 3181 3180 3180 3182 3182 3182 3183 3183 3184 3185 3186 3187 3187 3188 3188 3188 3189 3189 3189 3190 3191 3191 3191 3192 3192 3194 3195 3196 3196 3196 3195 3195 3195 3196 3197 3197 3198 3199 3200
3167 3166 3165 3165 3164 3163 3162 3161 3160 3159 3158 3158 3157 3156 3156 3155 3155 3154 3153 3153 3152 3152 3151 3151 3151 3150 3150 3151 3151 3151 3151 3150 3150 3152 3153 3154 3156 3158 3160 3162 3164 3167 3169 3172 3173 3175 3180 3181 3180 3180 3179 3180 3182 3181 3182 3182 3182 3184 3186 3187 3188 3188 3188 3189 3189 3190 3190 3190 3191 3191 3191 3191 3192 3192 3194 3196 3196 3196 3196 3196 3195 3195 3196 3197 3198 3199 3199 3200
3165 3165 3164 3163 3162 3161 3161 3160 3159 3158 3157 3157 3156 3155 3155 3154 3154 3153 3152 3151 3151 3151 3150 3150 3150 3149 3149 3149 3149 3151 3150 3148 3149 3152 3153 3154 3156 3157 3159 3161 3164 3166 3168 3171 3172 3174 3178 3180 3180 3180 3180 3180 3182 3182 3182 3182 3182 3184 3186 3187 3188 3189 3189 3189 3190 3190 3191 3191 3191 3192 3192 3192 3193 3193 3193 3196 3196 3196 3197 3197 3196 3196 3197 3198 3198 3199 3200 3201
3164 3163 3163 3162 3161 3160 3159 3158 3158 3157 3156 3155 3155 3154 3154 3153 3152 3152 3151 3150 3150 3150 3149 3149 3148 3148 3147 3147 3148 3149 3149 3150 3150 3151 3152 3153 3155 3157 3159 3160 3163 3165 3168 3170 3172 3174 3177 3180 3181 3182 3182 3180 3181 3182 3181 3181 3183 3185 3186 3187 3188 3189 3189 3190 3190 3191 3191 3192 3192 3192 3193 3193 3194 3193 3194 3195 3196 3197 3198 3198 3198 3198 3198 3199 3199 3200 3200 3201
3162 3162 3161 3161 3160 3159 3158 3157 3157 3156 3155 3154 3154 3153 3153 3152 3151 3150 3150 3149 3149 3148 3148 3148 3147 3146 3145 3145 3146 3146 3146 3150 3150 3150 3152 3153 3155 3157 3159 3160 3162 3165 3167 3170 3173 3174 3177 3180 3181 3182 3181 3179 3180 3182 3181 3181 3183 3185 3186 3187 3188 3189 3190 3190 3191 3191 3191 3192 3193 3193 3193 3194 3194 3194 3194 3195 3196 3197 3198 3198 3199 3199 3199 3199 3199 3200 3200 3201
3161 3160 3160 3159 3159 3158 3157 3156 3155 3155 3154 3153 3152 3152 3152 3151 3150 3149 3149 3148 3147 3147 3147 3147 3146 3145 3144 3144 3145 3145 3145 3148 3149 3150 3152 3153 3155 3156 3158 3160 3162 3164 3167 3171 3174 3175 3176 3179 3180 3181 3180 3179 3181 3181 3180 3181 3183 3185 3186 3187 3188 3189 3189 3190 3191 3191 3191 3192 3193 3192 3193 3194 3195 3194 3194 3195 3195 3197 3198 3199 3199 3199 3199 3199 3199 3200 3200 3201
3160 3159 3158 3158 3157 3156 3155 3154 3154 3153 3153 3152 3151 3151 3151 3150 3150 3148 3148 3147 3146 3146 3146 3146 3145 3144 3143 3143 3144 3143 3144 3147 3148 3149 3151 3153 3154 3155 3157 3159 3162 3165 3167 3171 3175 3177 3177 3177 3178 3180 3180 3179 3180 3181 3180 3181 3183 3185 3186 3187 3188 3188 3189 3190 3190 3191 3191 3192 3193 3192 3192 3194 3195 3195 3195 3195 3195 3197 3199 3199 3200 3199 3199 3199 3199 3199 3200 3201
3158 3158 3157 3156 3156 3155 3154 3153 3152 3152 3151 3150 3150 3149 3149 3149 3149 3148 3147 3146 3145 3145 3145 3145 3144 3143 3143 3143 3143 3142 3144 3146 3147 3149 3151 3152 3154 3155 3157 3159 3162 3166 3167 3170 3174 3177 3177 3177 3177 3178 3178 3178 3178 3180 3181 3181 3182 3184 3186 3187 3188 3188 3188 3189 3190 3191 3191 3192 3193 3192 3192 3194 3195 3195 3195 3195 3195 3197 3199 3199 3200 3199 3199 3199 3199 3199 3200 3201
3157 3156 3155 3155 3154 3153 3152 3151 3151 3150 3150 3149 3148 3148 3148 3148 3148 3147 3146 3145 3145 3144 3144 3144 3144 3143 3143 3143 3142 3142 3144 3145 3147 3149 3150 3152 3154 3155 3157 3159 3163 3165 3167 3169 3173 3176 3176 3176 3177 3177 3177 3178 3177 3178 3179 3181 3182 3183 3185 3186 3187 3188 3188 3188 3189 3190 3190 3191 3192 3192 3192 3193 3194 3195 3195 3196 3196 3196 3197 3198 3198 3199 3199 3198 3199 3200 3200 3200
3155 3154 3154 3153 3152 3152 3151 3150 3149 3149 3148 3148 3147 3147 3147 3147 3146 3146 3145 3144 3144 3144 3143 3144 3143 3143 3142 3141 3141 3142 3144 3144 3146 3148 3150 3152 3154 3157 3158 3160 3162 3165 3167 3170 3171 3173 3174 3175 3176 3176 3177 3177 3176 3175 3175 3178 3180 3181 3184 3184 3185 3188 3188 3187 3187 3189 3190 3190 3191 3191 3192 3192 3193 3195 3195 3196 3196 3196 3196 3196 3197 3198 3198 3198 3198 3199 3199 3200
3153 3152 3152 3151 3151 3150 3149 3148 3148 3147 3147 3147 3146 3146 3145 3145 3145 3145 3144 3143 3142 3143 3143 3143 3143 3142 3141 3141 3141 3143 3144 3144 3146 3148 3149 3151 3154 3157 3158 3160 3163 3165 3168 3170 3170 3171 3173 3174 3175 3175 3175 3175 3176 3174 3172 3174 3176 3179 3181 3181 3182 3185 3186 3186 3186 3188 3189 3190 3190 3191 3192 3192 3193 3194 3195 3196 3196 3196 3197 3197 3196 3197 3197 3197 3198 3198 3198 3199
3151 3150 3150 3150 3149 3148 3148 3147 3146 3145 3145 3145 3145 3145 3145 3144 3144 3144 3143 3142 3141 3141 3142 3142 3142 3141 3141 3141 3141 3143 3145 3146 3147 3148 3149 3151 3154 3157 3159 3161 3163 3165 3167 3169 3169 3169 3171 3173 3174 3173 3172 3173 3174 3173 3172 3172 3173 3175 3176 3176 3179 3182 3184 3186 3187 3187 3188 3189 3189 3190 3191 3192 3193 3194 3195 3196 3197 3197 3197 3197 3197 3197 3196 3196 3197 3197 3198 3199
3148 3148 3148 3147 3147 3146 3146 3145 3144 3144 3144 3144 3144 3144 3144 3144 3144 3143 3141 3141 3140 3140 3140 3141 3141 3140 3141 3143 3143 3144 3145 3146 3147 3148 3150 3151 3154 3157 3159 3160 3163 3165 3166 3167 3167 3168 3170 3171 3171 3170 3170 3171 3172 3172 3171 3170 3171 3171 3172 3173 3176 3179 3181 3184 3186 3186 3187 3188 3188 3189 3190 3191 3192 3193 3194 3195 3196 3197 3197 3197 3197 3197 3196 3196 3196 3197 3198 3199
3146 3146 3146 3145 3145 3144 3144 3144 3143 3142 3142 3142 3143 3143 3143 3142 3143 3142 3139 3139 3139 3139 3138 3139 3140 3140 3142 3144 3145 3144 3144 3145 3146 3148 3149 3151 3154 3157 3158 3159 3161 3163 3163 3166 3167 3168 3169 3168 3168 3168 3169 3170 3171 3172 3171 3169 3169 3168 3168 3171 3174 3175 3177 3180 3183 3185 3186 3187 3188 3189 3189 3190 3192 3193 3194 3195 3196 3196 3196 3196 3197 3197 3196 3196 3196 3196 3197 3198
3144 3144 3144 3143 3143 3142 3142 3142 3141 3141 3141 3141 3141 3142 3142 3141 3141 3141 3139 3137 3137 3137 3137 3137 3138 3139 3141 3144 3144 3143 3143 3145 3146 3148 3149 3150 3152 3155 3156 3157 3159 3161 3162 3164 3165 3166 3167 3165 3166 3168 3168 3169 3170 3171 3170 3168 3168 3167 3166 3168 3170 3172 3173 3176 3180 3183 3185 3185 3186 3188 3189 3190 3191 3192 3193 3194 3195 3196 3196 3196 3196 3197 3196 3197 3197 3196 3197 3197
3141 3141 3142 3141 3141 3141 3140 3140 3140 3140 3140 3140 3140 3141 3140 3140 3139 3139 3138 3136 3135 3135 3135 3136 3136 3138 3140 3142 3142 3141 3142 3144 3145 3146 3148 3148 3151 3153 3155 3156 3158 3160 3161 3161 3162 3163 3163 3163 3165 3166 3167 3167 3168 3169 3169 3168 3168 3168 3165 3165 3167 3169 3170 3173 3177 3181 3183 3184 3185 3187 3188 3189 3190 3192 3193 3194 3195 3195 3196 3196 3196 3196 3196 3196 3197 3196 3196 3196
3139 3139 3139 3139 3139 3139 3138 3138 3138 3138 3138 3139 3139 3139 3139 3139 3138 3137 3136 3134 3132 3131 3132 3133 3135 3136 3137 3140 3140 3139 3141 3143 3144 3146 3146 3146 3150 3152 3154 3155 3157 3158 3159 3160 3160 3161 3161 3162 3163 3165 3166 3166 3166 3167 3168 3168 3167 3169 3167 3164 3166 3167 3167 3170 3175 3178 3181 3182 3183 3186 3187 3188 3188 3190 3192 3193 3194 3195 3195 3196 3196 3196 3196 3196 3197 3197 3196 3196
3136 3136 3137 3137 3137 3137 3137 3136 3136 3137 3137 3138 3138 3139 3140 3139 3138 3136 3134 3132 3129 3128 3129 3130 3132 3133 3135 3137 3138 3138 3140 3141 3142 3145 3144 3145 3148 3151 3153 3155 3155 3156 3157 3158 3160 3159 3160 3162 3162 3163 3164 3164 3164 3164 3165 3167 3166 3167 3167 3164 3164 3166 3166 3168 3171 3175 3177 3178 3180 3183 3185 3186 3187 3188 3190 3192 3193 3194 3195 3195 3195 3195 3195 3195 3196 3196 3196 3196
3134 3134 3134 3134 3134 3135 3135 3134 3134 3136 3136 3136 3137 3138 3139 3138 3137 3135 3133 3132 3127 3125 3126 3126 3127 3129 3131 3134 3135 3137 3139 3138 3140 3143 3143 3144 3147 3150 3152 3153 3153 3154 3156 3157 3159 3158 3157 3159 3161 3161 3162 3163 3163 3162 3162 3165 3165 3165 3165 3164 3163 3165 3166 3166 3167 3171 3173 3174 3175 3179 3180 3182 3184 3185 3187 3190 3191 3193 3194 3194 3193 3193 3193 3194 3195 3195 3195 3195
3131 3132 3132 3132 3132 3132 3133 3132 3133 3134 3135 3134 3133 3135 3136 3135 3136 3134 3133 3132 3124 3120 3122 3123 3125 3126 3127 3131 3133 3134 3135 3136 3139 3141 3141 3142 3145 3149 3150 3151 3152 3152 3154 3156 3155 3155 3154 3155 3158 3160 3160 3160 3161 3161 3161 3164 3164 3162 3163 3163 3163 3163 3163 3163 3164 3166 3169 3171 3172 3173 3176 3178 3178 3179 3182 3186 3188 3190 3191 3192 3192 3191 3191 3192 3193 3194 3194 3194
3129 3129 3129 3130 3130 3129 3131 3131 3131 3132 3133 3132 3132 3134 3134 3134 3135 3134 3135 3131 3120 3116 3118 3120 3122 3124 3126 3130 3131 3132 3133 3135 3136 3138 3140 3141 3143 3146 3147 3148 3151 3151 3152 3153 3151 3152 3153 3153 3155 3158 3158 3157 3158 3160 3161 3163 3163 3161 3162 3163 3164 3164 3163 3162 3163 3163 3166 3168 3167 3168 3172 3174 3173 3174 3178 3182 3184 3186 3187 3188 3189 3189 3189 3190 3191 3193 3193 3193
3126 3126 3127 3128 3128 3127 3128 3129 3129 3130 3131 3131 3132 3133 3133 3134 3133 3133 3135 3130 3117 3114 3117 3118 3120 3123 3125 3129 3129 3131 3132 3134 3135 3135 3138 3140 3141 3144 3145 3146 3149 3150 3150 3150 3149 3150 3151 3151 3153 3155 3155 3155 3157 3159 3160 3161 3160 3161 3163 3161 3161 3163 3163 3163 3163 3163 3163 3164 3164 3166 3169 3170 3171 3172 3175 3178 3180 3181 3182 3184 3185 3185 3186 3188 3189 3191 3191 3191
3124 3124 3124 3125 3126 3125 3126 3127 3128 3128 3128 3129 3130 3131 3132 3132 3132 3132 3133 3126 3115 3113 3115 3116 3118 3121 3124 3126 3128 3129 3129 3132 3134 3134 3136 3139 3140 3142 3144 3146 3147 3148 3148 3148 3148 3148 3149 3150 3151 3152 3153 3154 3156 3158 3159 3160 3159 3160 3161 3159 3158 3160 3163 3165 3164 3164 3163 3161 3162 3164 3165 3167 3168 3169 3171 3172 3173 3175 3177 3180 3181 3182 3183 3185 3186 3188 3189 3189
3121 3121 3120 3122 3123 3123 3124 3125 3125 3126 3127 3128 3129 3130 3131 3131 3132 3130 3126 3120 3115 3112 3113 3115 3117 3119 3122 3124 3126 3126 3127 3130 3132 3132 3133 3137 3139 3140 3141 3143 3144 3144 3145 3145 3146 3146 3147 3148 3148 3149 3151 3153 3155 3156 3157 3158 3158 3159 3160 3159 3158 3158 3163 3166 3165 3166 3165 3161 3162 3163 3163 3164 3163 3164 3166 3166 3165 3169 3172 3174 3177 3179 3180 3181 3182 3184 3186 3187
3119 3118 3118 3119 3120 3120 3122 3123 3123 3124 3125 3126 3127 3128 3129 3130 3129 3125 3120 3117 3113 3110 3112 3114 3115 3117 3120 3122 3123 3124 3125 3127 3129 3130 3131 3133 3135 3137 3138 3138 3140 3140 3140 3142 3143 3144 3143 3143 3145 3148 3150 3151 3153 3154 3155 3155 3155 3157 3159 3158 3158 3158 3162 3165 3163 3163 3163 3161 3161 3162 3161 3160 3159 3160 3163 3163 3163 3166 3169 3171 3173 3173 3175 3177 3179 3180 3183 3185
3116 3115 3115 3116 3116 3118 3120 3121 3121 3123 3123 3124 3125 3126 3128 3127 3123 3120 3118 3115 3111 3108 3110 3112 3113 3115 3118 3119 3121 3122 3123 3125 3126 3127 3130 3131 3133 3135 3136 3136 3138 3138 3137 3139 3141 3141 3140 3141 3143 3146 3147 3148 3149 3150 3151 3152 3153 3155 3157 3158 3158 3158 3161 3164 3163 3162 3162 3160 3159 3160 3160 3157 3156 3156 3159 3162 3163 3164 3167 3169 3170 3169 3170 3173 3176 3178 3180 3182
3113 3112 3112 3112 3113 3116 3118 3118 3119 3121 3122 3122 3123 3124 3125 3123 3119 3117 3115 3112 3109 3107 3107 3108 3111 3113 3115 3116 3118 3120 3121 3122 3124 3126 3127 3129 3130 3131 3133 3134 3136 3137 3136 3137 3138 3138 3138 3138 3140 3143 3144 3145 3147 3147 3147 3150 3153 3155 3157 3158 3156 3156 3158 3160 3161 3159 3158 3156 3155 3156 3156 3155 3155 3154 3157 3160 3159 3160 3165 3167 3168 3169 3170 3172 3175 3177 3178 3181
3110 3109 3108 3109 3111 3113 3115 3116 3117 3118 3119 3120 3121 3121 3120 3118 3116 3114 3112 3109 3108 3107 3106 3107 3109 3111 3113 3114 3115 3117 3118 3119 3121 3123 3124 3126 3126 3127 3129 3131 3132 3134 3133 3133 3134 3135 3136 3136 3137 3141 3143 3144 3146 3145 3145 3149 3151 3153 3157 3156 3152 3153 3155 3157 3157 3155 3154 3153 3152 3152 3152 3152 3154 3154 3157 3160 3159 3161 3165 3166 3168 3169 3170 3171 3174 3176 3177 3180
3106 3105 3105 3106 3108 3110 3111 3113 3114 3116 3117 3118 3118 3117 3115 3114 3113 3110 3109 3107 3106 3106 3106 3106 3107 3108 3110 3111 3112 3114 3115 3116 3118 3120 3121 3123 3124 3125 3126 3128 3129 3130 3129 3130 3131 3132 3133 3133 3134 3138 3141 3142 3145 3145 3144 3146 3147 3149 3153 3153 3150 3151 3152 3153 3153 3152 3153 3152 3150 3151 3151 3151 3153 3153 3154 3157 3160 3161 3163 3166 3167 3168 3169 3170 3171 3173 3174 3178
3102 3102 3102 3103 3106 3107 3108 3110 3111 3113 3114 3115 3114 3112 3111 3111 3109 3107 3106 3106 3105 3105 3105 3104 3103 3104 3106 3107 3109 3111 3112 3113 3115 3117 3118 3120 3121 3121 3123 3125 3126 3127 3127 3127 3128 3129 3130 3129 3129 3134 3138 3140 3143 3145 3144 3145 3146 3146 3148 3149 3149 3150 3149 3149 3149 3148 3151 3152 3148 3148 3149 3149 3150 3150 3150 3154 3158 3160 3162 3165 3167 3167 3167 3169 3170 3170 3171 3174
3099 3099 3099 3101 3103 3104 3105 3107 3108 3110 3111 3112 3110 3108 3108 3108 3106 3105 3104 3104 3105 3105 3104 3102 3101 3102 3103 3104 3105 3108 3109 3110 3112 3114 3115 3116 3116 3117 3120 3122 3123 3125 3126 3125 3126 3127 3128 3125 3125 3129 3134 3137 3141 3144 3142 3143 3144 3144 3144 3145 3146 3147 3146 3146 3147 3147 3150 3149 3146 3145 3146 3146 3146 3147 3149 3152 3156 3159 3160 3163 3165 3166 3166 3167 3168 3169 3170 3171
3096 3096 3097 3099 3100 3100 3102 3104 3105 3107 3108 3108 3106 3105 3104 3104 3103 3103 3103 3103 3104 3103 3102 3100 3099 3099 3100 3101 3102 3104 3106 3107 3109 3111 3112 3112 3112 3114 3117 3119 3121 3122 3124 3124 3125 3126 3127 3124 3123 3126 3131 3134 3137 3140 3139 3140 3142 3143 3142 3142 3143 3144 3143 3143 3144 3148 3150 3149 3147 3146 3145 3144 3144 3145 3147 3150 3154 3158 3159 3160 3163 3165 3165 3165 3165 3167 3169 3169
3094 3095 3096 3097 3097 3098 3100 3102 3102 3103 3103 3103 3103 3102 3102 3102 3101 3100 3101 3102 3102 3102 3102 3100 3099 3099 3099 3099 3099 3099 3102 3105 3106 3107 3108 3109 3110 3111 3114 3117 3118 3119 3121 3123 3124 3126 3125 3124 3122 3124 3129 3131 3131 3134 3136 3138 3140 3141 3141 3142 3141 3141 3141 3141 3143 3147 3149 3147 3146 3146 3145 3145 3145 3145 3147 3150 3153 3157 3158 3159 3161 3163 3164 3164 3164 3164 3166 3167
3093 3094 3096 3095 3095 3096 3098 3098 3098 3099 3099 3100 3100 3100 3101 3102 3101 3100 3100 3101 3101 3101 3100 3099 3099 3099 3098 3098 3097 3097 3098 3101 3103 3104 3105 3106 3107 3107 3110 3113 3115 3117 3119 3120 3122 3123 3122 3122 3121 3123 3126 3127 3126 3129 3134 3136 3136 3138 3139 3140 3140 3139 3139 3140 3141 3144 3146 3146 3145 3145 3146 3147 3148 3147 3148 3151 3153 3156 3158 3159 3160 3161 3162 3163 3163 3163 3164 3165
3091 3093 3096 3095 3093 3095 3096 3095 3096 3097 3097 3097 3097 3098 3099 3100 3099 3099 3099 3100 3100 3099 3099 3098 3098 3098 3098 3097 3096 3096 3095 3096 3099 3101 3101 3103 3104 3105 3107 3110 3113 3115 3116 3118 3119 3120 3119 3120 3120 3121 3124 3125 3125 3127 3131 3134 3134 3134 3136 3139 3139 3138 3139 3140 3139 3141 3144 3145 3145 3144 3145 3148 3150 3150 3150 3152 3154 3156 3157 3158 3160 3160 3160 3161 3162 3162 3163 3163
3089 3090 3093 3094 3093 3093 3094 3093 3094 3094 3094 3094 3095 3097 3097 3098 3097 3097 3097 3097 3098 3098 3098 3097 3097 3097 3097 3096 3095 3094 3093 3093 3095 3099 3100 3101 3102 3104 3105 3108 3110 3113 3114 3115 3116 3118 3118 3118 3118 3119 3121 3123 3123 3125 3129 3132 3134 3132 3132 3136 3138 3138 3138 3139 3138 3140 3141 3142 3143 3143 3145 3149 3151 3151 3151 3152 3154 3155 3156 3157 3159 3159 3159 3159 3160 3161 3161 3161
3087 3087 3089 3090 3091 3091 3091 3091 3092 3092 3092 3093 3094 3094 3094 3095 3095 3095 3094 3094 3095 3096 3096 3096 3097 3096 3096 3096 3093 3092 3092 3090 3091 3096 3098 3098 3101 3102 3103 3106 3108 3109 3109 3111 3113 3115 3116 3116 3117 3118 3118 3119 3120 3123 3126 3128 3131 3131 3130 3131 3134 3136 3137 3137 3137 3139 3139 3139 3141 3142 3144 3147 3149 3150 3150 3151 3153 3155 3155 3156 3156 3157 3157 3158 3158 3158 3159 3159
3085 3085 3087 3088 3088 3088 3088 3088 3090 3090 3091 3092 3091 3091 3092 3091 3091 3092 3093 3093 3093 3094 3094 3094 3095 3095 3095 3094 3092 3090 3090 3089 3089 3093 3095 3096 3098 3100 3100 3103 3105 3106 3107 3109 3111 3114 3115 3115 3117 3116 3114 3114 3116 3120 3122 3123 3126 3129 3129 3128 3129 3131 3133 3135 3136 3136 3136 3138 3140 3141 3143 3146 3149 3150 3150 3151 3152 3153 3154 3155 3155 3155 3155 3156 3156 3156 3156 3156
3083 3084 3086 3088 3087 3086 3085 3085 3087 3088 3088 3089 3089 3088 3089 3088 3087 3089 3090 3091 3093 3093 3093 3092 3093 3094 3093 3093 3091 3090 3090 3089 3088 3091 3093 3093 3095 3097 3098 3100 3103 3105 3106 3108 3110 3113 3113 3114 3116 3116 3114 3114 3115 3118 3121 3120 3121 3124 3126 3127 3127 3128 3129 3131 3132 3132 3134 3136 3138 3140 3143 3145 3147 3148 3149 3150 3151 3152 3153 3154 3154 3154 3153 3153 3154 3154 3154 3155
3081 3082 3085 3087 3085 3084 3084 3084 3084 3084 3085 3086 3086 3086 3085 3084 3085 3086 3087 3089 3092 3093 3092 3091 3090 3090 3091 3091 3091 3089 3090 3090 3089 3090 3092 3091 3092 3095 3096 3097 3100 3101 3104 3107 3110 3111 3111 3111 3113 3115 3115 3116 3116 3117 3119 3119 3119 3121 3124 3125 3126 3127 3128 3128 3128 3130 3132 3134 3135 3136 3139 3140 3143 3146 3147 3149 3150 3150 3150 3151 3152 3153 3153 3152 3152 3151 3151 3152
3078 3077 3080 3082 3082 3081 3082 3083 3083 3083 3083 3084 3084 3084 3083 3082 3082 3083 3084 3087 3090 3091 3091 3089 3089 3088 3088 3090 3091 3090 3090 3091 3090 3090 3091 3092 3093 3094 3094 3095 3096 3097 3101 3106 3109 3110 3111 3110 3111 3112 3113 3116 3117 3116 3117 3119 3119 3120 3122 3122 3124 3125 3126 3126 3126 3128 3130 3130 3132 3135 3137 3138 3140 3144 3145 3146 3148 3148 3148 3149 3150 3150 3151 3151 3151 3149 3148 3148
3076 3074 3074 3076 3076 3076 3077 3078 3079 3079 3080 3081 3082 3082 3082 3081 3081 3082 3083 3085 3086 3088 3088 3088 3088 3088 3088 3090 3091 3091 3091 3091 3090 3089 3089 3090 3091 3090 3089 3091 3093 3095 3101 3105 3106 3109 3110 3109 3109 3110 3111 3114 3116 3115 3115 3116 3117 3118 3119 3120 3121 3122 3123 3124 3125 3126 3127 3127 3129 3133 3134 3135 3138 3141 3143 3144 3145 3146 3146 3146 3147 3148 3148 3149 3149 3148 3147 3145
3075 3074 3073 3073 3074 3073 3074 3075 3076 3077 3077 3079 3079 3079 3080 3081 3080 3080 3082 3083 3083 3084 3086 3086 3087 3088 3088 3089 3090 3091 3092 3092 3090 3089 3088 3088 3088 3088 3087 3088 3091 3095 3099 3103 3105 3106 3108 3108 3108 3110 3110 3110 3111 3113 3114 3115 3115 3116 3117 3117 3118 3118 3119 3121 3122 3124 3124 3125 3126 3129 3130 3133 3136 3138 3140 3142 3143 3143 3143 3144 3145 3145 3145 3145 3145 3146 3146 3144
3074 3073 3073 3073 3073 3073 3073 3074 3076 3076 3076 3076 3077 3077 3078 3078 3079 3079 3080 3080 3082 3083 3084 3085 3087 3087 3087 3087 3088 3089 3091 3091 3089 3089 3088 3088 3089 3090 3090 3090 3092 3094 3097 3101 3103 3104 3105 3107 3109 3110 3108 3107 3109 3110 3112 3113 3113 3113 3114 3114 3113 3114 3115 3117 3119 3121 3121 3122 3123 3126 3128 3132 3134 3136 3138 3139 3140 3140 3140 3141 3142 3142 3142 3142 3142 3143 3143 3143
3072 3072 3072 3071 3071 3072 3073 3074 3075 3075 3075 3075 3075 3076 3077 3077 3078 3079 3079 3079 3080 3082 3083 3084 3084 3085 3086 3085 3085 3085 3087 3088 3087 3087 3087 3088 3090 3092 3094 3094 3095 3096 3097 3099 3101 3102 3103 3105 3107 3108 3106 3106 3108 3109 3109 3110 3110 3108 3110 3111 3110 3111 3114 3115 3117 3118 3119 3120 3123 3124 3127 3130 3133 3134 3136 3137 3137 3138 3139 3139 3139 3139 3139 3139 3139 3139 3139 3139